St. Cloud, MN

11:40 AM CDT on July 16, 2019 (GMT -0500)
Saint Cloud Regional

Weather History for KSTC - May, 2019

Change the Weather History Date:

Thursday, May 2, 2019

  Actual Average Record
Temperature  
Mean Temperature 44 °F 52 °F  
Max Temperature 53 °F 65 °F 94 °F (1959)
Min Temperature 34 °F 40 °F 21 °F (1967)
Degree Days  
Heating Degree Days 21 13  
Month to date heating degree days 45 27  
Since 1 July heating degree days 8843 8194  
Cooling Degree Days 0 0  
Month to date cooling degree days 0 0  
Year to date cooling degree days 0 2  
Moisture  
Dew Point 37 °F    
Average Humidity 73    
Maximum Humidity 100    
Minimum Humidity 46    
Precipitation  
Precipitation 0.00 in 0.09 in 0.87 in (2008)
Month to date precipitation 0.06 0.19  
Year to date precipitation 7.41 5.55  
Snow  
Snow 0.00 in 0.00 in 0.70 in (1954)
Month to date snowfall 0.0 0.0  
Since 1 July snowfall 68.5 45.7  
Snow Depth 0.00 in    
Sea Level Pressure  
Sea Level Pressure 30.14 in    
Wind  
Wind Speed 4 mph (WNW)    
Max Wind Speed 17 mph    
Max Gust Speed 24 mph    
Visibility 6 miles    
Events      
T = Trace of Precipitation, MM = Missing Value Source: NWS Daily Summary

Daily Weather History Graph

Daily Weather History Graph

Search for Another Location

Airport or City:

Astronomy

May. 02, 2019 Rise Set
Actual Time 6:03 AM CDT 8:24 PM CDT
Civil Twilight 5:30 AM CDT 8:57 PM CDT
Nautical Twilight 4:49 AM CDT 9:38 PM CDT
Astronomical Twilight 4:03 AM CDT 10:24 PM CDT
Moon 5:28 AM CDT (5/2) 6:01 PM CDT (5/2)
Length of Visible Light 15h 27m
Length of Day
14h 21m
Waning Crescent, 5% of the Moon is Illuminated
May 2
Waning Crescent
May 4
New
May 11
First Quarter
May 18
Full
May 26
Last Quarter

Hourly Weather History & Observations

Time (CDT) Temp. Windchill Dew Point Humidity Pressure Visibility Wind Dir Wind Speed Gust Speed Precip Events Conditions
12:53 AM 37.9 °F - 37.0 °F 97% 30.15 in 7.0 mi Calm Calm - N/A   Overcast
1:05 AM 37.9 °F - 37.0 °F 97% 30.10 in 5.0 mi Calm Calm - N/A   Overcast
1:53 AM 37.9 °F - 37.0 °F 97% 30.15 in 2.5 mi Calm Calm - N/A   Overcast
2:07 AM 37.9 °F - 37.0 °F 97% 30.09 in 1.5 mi Calm Calm - N/A   Overcast
2:53 AM 37.9 °F - 37.9 °F 100% 30.14 in 1.0 mi Calm Calm - N/A   Mist
3:14 AM 37.9 °F - 37.9 °F 100% 30.09 in 0.8 mi Calm Calm - N/A   Mist
3:53 AM 37.9 °F - 37.9 °F 100% 30.14 in 0.8 mi Calm Calm - N/A   Mist
4:41 AM 37.9 °F - 37.9 °F 100% 30.08 in 1.0 mi Calm Calm - N/A   Mist
4:50 AM 37.4 °F - 37.4 °F 100% 30.08 in 0.8 mi Calm Calm - N/A   Mist
4:53 AM 37.9 °F - 37.9 °F 100% 30.14 in 0.8 mi Calm Calm - N/A   Mist
5:00 AM 37.9 °F - 37.9 °F 100% 30.08 in 1.0 mi Calm Calm - N/A   Mist
5:24 AM 37.9 °F - 37.9 °F 100% 30.09 in 1.5 mi Calm Calm - N/A   Overcast
5:41 AM 37.9 °F - 37.9 °F 100% 30.09 in 0.8 mi Calm Calm - N/A   Mist
5:53 AM 37.9 °F - 37.9 °F 100% 30.14 in 0.8 mi Calm Calm - N/A   Mist
6:17 AM 37.9 °F - 37.9 °F 100% 30.09 in 1.0 mi Calm Calm - N/A   Mist
6:30 AM 39.0 °F - 37.9 °F 96% 30.09 in 0.8 mi Calm Calm - N/A   Mist
6:42 AM 39.0 °F - 37.9 °F 96% 30.10 in 1.0 mi Calm Calm - N/A   Mist
6:53 AM 39.0 °F - 37.9 °F 96% 30.15 in 1.5 mi Calm Calm - N/A   Overcast
7:02 AM 39.0 °F - 39.0 °F 100% 30.10 in 1.8 mi Calm Calm - N/A   Overcast
7:14 AM 39.0 °F - 39.0 °F 100% 30.10 in 2.0 mi Calm Calm - N/A   Overcast
7:24 AM 39.9 °F - 39.0 °F 97% 30.11 in 3.0 mi Calm Calm - N/A   Overcast
7:53 AM 41.0 °F - 39.0 °F 93% 30.17 in 6.0 mi Calm Calm - N/A   Overcast
8:22 AM 41.0 °F 36.4 °F 39.9 °F 96% 30.12 in 10.0 mi WNW 6.9 mph - N/A   Overcast
8:43 AM 42.1 °F 37.1 °F 39.0 °F 89% 30.12 in 10.0 mi WNW 8.1 mph - N/A   Overcast
8:49 AM 42.8 °F 38.0 °F 37.4 °F 81% 30.12 in 10.0 mi NW 8.1 mph - N/A   Overcast
8:50 AM 42.1 °F 36.6 °F 37.9 °F 85% 30.17 in 10.0 mi NW 9.2 mph - N/A   Overcast
9:53 AM 44.1 °F 38.6 °F 37.0 °F 76% 30.18 in 10.0 mi WNW 10.4 mph - N/A   Overcast
10:53 AM 44.1 °F 40.1 °F 36.0 °F 73% 30.19 in 10.0 mi WNW 6.9 mph - N/A   Overcast
11:53 AM 46.0 °F 43.1 °F 37.0 °F 71% 30.19 in 10.0 mi WNW 5.8 mph - N/A   Overcast
12:20 PM 46.9 °F - 36.0 °F 66% 30.13 in 10.0 mi Calm Calm - N/A   Overcast
12:53 PM 48.9 °F - 36.0 °F 61% 30.18 in 10.0 mi WSW 8.1 mph - N/A   Overcast
1:53 PM 48.9 °F - 36.0 °F 61% 30.19 in 10.0 mi WNW 13.8 mph 19.6 mph N/A   Overcast
2:53 PM 48.9 °F - 34.0 °F 56% 30.18 in 10.0 mi NW 9.2 mph - N/A   Overcast
3:53 PM 50.0 °F - 32.0 °F 50% 30.18 in 10.0 mi West 11.5 mph - N/A   Mostly Cloudy
4:53 PM 50.0 °F - 30.9 °F 48% 30.16 in 10.0 mi WNW 5.8 mph - N/A   Overcast
5:53 PM 52.0 °F - 32.0 °F 47% 30.14 in 10.0 mi Calm Calm - N/A   Overcast
6:53 PM 51.1 °F - 32.0 °F 48% 30.15 in 10.0 mi Calm Calm - N/A   Overcast
7:53 PM 50.0 °F - 32.0 °F 50% 30.15 in 10.0 mi Calm Calm - N/A   Overcast
8:53 PM 46.0 °F 44.8 °F 35.1 °F 66% 30.16 in 10.0 mi East 3.5 mph - N/A   Overcast
9:53 PM 45.0 °F - 34.0 °F 65% 30.17 in 10.0 mi Calm Calm - N/A   Overcast
10:53 PM 41.0 °F - 34.0 °F 76% 30.17 in 10.0 mi Calm Calm - N/A   Scattered Clouds
11:53 PM 37.9 °F - 33.1 °F 83% 30.17 in 10.0 mi Calm Calm - N/A   Clear